Tracking 34717 objects as of 14-Jul-2026
HD Live streaming from Space Station
objects crossing your sky now

STARLINK-2015

Track STARLINK-2015 now!
10-day predictions
STARLINK-2015 is classified as:


NORAD ID: 47638
Int'l Code: 2021-012U
Perigee: 454.3 km
Apogee: 462.0 km
Inclination: 53.2 °
Period: 93.6 minutes
Semi major axis: 6829 km
RCS: Unknown
Launch date: February 16, 2021
Source: United States (US)
Launch site: AIR FORCE EASTERN TEST RANGE (AFETR)
Your satellite tracking list
Your tracking list is empty




NASA's NSSDC Master Catalog

Two Line Element Set (TLE):
1 47638U 21012U   26194.15246478  .00032612  00000-0  85632-3 0  9994
2 47638  53.1570 107.0246 0005641  69.0676 291.0932 15.38346171300605
Source of the keplerian elements: AFSPC